EW7452 Weather Reports


Display with metric or nautical units.
time (UTC)temp
F
wind
direction
speed
MPH
gust
MPH
rain 1hr
in
rain 24hr
in
rain mn
in
humidity
%
barometer
mb
20260506044600 41 285 22.0 26.0 0.00 0.00 0.00 76 1003.7
20260506043111 41 280 22.0 26.0 0.00 0.00 0.00 77 1003.6
20260506041601 41 289 23.0 25.0 0.00 0.00 0.00 78 1003.5
20260506040001 40 286 21.0 26.0 0.00 0.00 0.00 79 1003.3
20260506034617 40 289 23.0 26.0 0.00 0.00 0.00 80 1003.2
20260506033015 39 286 21.0 28.0 0.00 0.00 0.00 81 1003.1
20260506031520 39 280 22.0 25.0 0.00 0.00 0.00 81 1003.0
20260506024503 38 280 23.0 26.0 0.00 0.00 0.00 84 1002.7
20260506023106 38 286 20.0 26.0 0.00 0.00 0.00 84 1002.7
20260506021606 38 290 20.0 29.0 0.00 0.00 0.00 83 1002.5
20260506020100 38 285 21.0 25.0 0.00 0.00 0.00 83 1002.5
20260506014601 38 289 21.0 25.0 0.00 0.00 0.00 83 1002.3
20260506013013 38 288 16.0 24.0 0.00 0.00 0.00 83 1002.3
20260506011509 38 287 20.0 25.0 0.00 0.00 0.00 83 1002.1
20260506010120 38 285 20.0 25.0 0.00 0.00 0.00 83 1001.9
20260506004603 38 287 20.0 26.0 0.00 0.00 0.00 83 1001.9
20260506003011 38 284 21.0 25.0 0.00 0.00 0.00 83 1001.8
20260506001502 38 293 20.0 25.0 0.00 0.00 0.00 83 1001.6
20260506000110 38 282 21.0 25.0 0.00 0.00 0.00 83 1001.7
20260505234501 39 285 20.0 25.0 0.00 0.00 0.00 83 1001.6
20260505233005 39 285 21.0 25.0 0.00 0.00 0.00 83 1001.5
20260505231513 39 283 20.0 25.0 0.00 0.00 0.00 83 1001.5
20260505224601 39 359 20.0 23.0 0.00 0.00 0.00 81 1001.4
20260505223104 39 288 21.0 24.0 0.00 0.00 0.00 81 1001.5
20260505221602 39 287 19.0 23.0 0.00 0.00 0.00 82 1001.4
20260505220002 40 286 19.0 23.0 0.00 0.00 0.00 81 1001.4
20260505214502 39 290 18.0 22.0 0.00 0.00 0.00 81 1001.3
20260505213116 39 284 17.0 19.0 0.00 0.00 0.00 83 1001.3
20260505211512 40 284 14.0 18.0 0.00 0.00 0.00 83 1001.3
20260505210103 40 264 15.0 17.0 0.00 0.00 0.00 82 1001.2
20260505204512 40 274 16.0 21.0 0.00 0.00 0.00 81 1001.1
20260505203001 40 283 15.0 18.0 0.00 0.00 0.00 79 1000.9
20260505201502 40 284 16.0 19.0 0.00 0.00 0.00 79 1000.8
20260505200011 40 283 17.0 20.0 0.00 0.00 0.00 80 1000.7
20260505194601 40 279 17.0 21.0 0.00 0.00 0.00 79 1000.7
20260505193012 41 284 18.0 21.0 0.00 0.00 0.00 79 1000.6
20260505191502 41 283 16.0 20.0 0.00 0.00 0.00 79 1000.5
20260505190017 41 285 17.0 23.0 0.00 0.00 0.00 79 1000.5
20260505184511 41 280 20.0 25.0 0.00 0.00 0.00 80 1000.4
20260505183145 42 278 24.0 28.0 0.00 0.00 0.00 77 1000.3
20260505181601 41 274 19.0 23.0 0.00 0.00 0.00 79 1000.1
20260505180012 42 269 18.0 21.0 0.00 0.00 0.00 79 1000.1
20260505174601 42 276 17.0 20.0 0.00 0.00 0.00 79 1000.0
20260505173011 42 264 19.0 23.0 0.00 0.00 0.00 78 1000.0
20260505171502 43 266 21.0 25.0 0.00 0.00 0.00 76 999.9
20260505170004 43 261 19.0 22.0 0.00 0.00 0.00 75 999.8
20260505164514 44 256 17.0 20.0 0.00 0.00 0.00 77 999.8
20260505163101 44 251 19.0 23.0 0.00 0.00 0.00 79 999.8
20260505161502 44 253 22.0 27.0 0.00 0.00 0.00 79 999.8
20260505153103 44 251 21.0 25.0 0.00 0.00 0.00 77 999.5
20260505151624 44 259 21.0 25.0 0.00 0.00 0.00 76 999.4
20260505124602 46 253 22.0 26.0 0.00 0.00 0.00 68 998.6
20260505123012 46 256 20.0 24.0 0.00 0.00 0.00 70 998.5
20260505121502 45 256 19.0 24.0 0.00 0.00 0.00 71 998.4
20260505114602 46 256 18.0 21.0 0.00 0.00 0.00 71 998.2
20260505113003 46 258 18.0 21.0 0.00 0.00 0.00 69 998.1
20260505111513 45 255 18.0 23.0 0.00 0.00 0.00 71 998.0
20260505101509 44 260 19.0 25.0 0.00 0.00 0.00 71 997.4
20260505100003 44 260 19.0 24.0 0.00 0.00 0.00 72 997.3
20260505094603 44 269 19.0 23.0 0.00 0.00 0.00 73 997.2
20260505091511 44 263 19.0 23.0 0.00 0.00 0.00 74 996.9
20260505083011 44 271 18.0 23.0 0.00 0.00 0.00 75 996.5
20260505080100 43 262 19.0 21.0 0.00 0.00 0.00 76 996.1
20260505074610 43 268 19.0 23.0 0.00 0.00 0.00 77 996.1
20260505073019 42 267 19.0 23.0 0.00 0.00 0.00 78 995.9
20260505071610 43 267 18.0 23.0 0.00 0.00 0.00 77 995.8
20260505064530 44 280 18.0 21.0 0.00 0.00 0.00 74 995.4
20260505063101 44 274 18.0 21.0 0.00 0.00 0.00 74 995.3
20260505061609 44 286 17.0 21.0 0.00 0.00 0.00 74 995.2
20260505060010 44 276 17.0 20.0 0.00 0.00 0.00 74 995.2